Weather in Ozaryonny

Russia / Bryansk Oblast     52°57′00″N   33°43′53″E
temp.,
°C
wind,
m/s
gust,
m/s
humid.,
%
clouds,
%
prec.,
mm/h
press.,
hPa
HPBL,
m
9 may, sun
sun900:00+4nw61392100 1.8 1010954
03:00+3wnw61289100 1.9 1013758
06:00+2wnw613915 0.0 1015563
09:00+6nw7117410 0.0 10171074
12:00+9nnw81052100 0.1 10182176
15:00+10nnw71049100 0.1 10202199
18:00+10nnw485610 0.0 10211882
21:00+5nw36715 0.0 102491
10 may, mon
mon1000:00+3nw37775 0.0 1026107
03:00+2nnw35815 0.0 102779
06:00+3n24762 0.0 102876
09:00+9n34550 0.0 1029414
12:00+13nne45420 0.0 10281393
15:00+15nne45380 0.0 10271707
18:00+14nne46510 0.0 1026949
21:00+8ne35680 0.0 102874
11 may, tue
tue1100:00+6ne37750 0.0 1027115
03:00+4nne310790 0.0 1027175
06:00+5nne5147458 0.0 1026351
09:00+9ne61270100 0.0 1026430
12:00+14ne6106556 0.0 1024646
15:00+18ene795919 0.0 10231286
18:00+16ene71076100 0.4 10231006
21:00+12ene39950 0.9 1023208
12 may, wed
wed1200:00+9e389617 0.0 1024151
03:00+8ese2889100 0.0 1022218
06:00+8e3596100 2.8 1022167
09:00+10e478260 3.6 1022680
12:00+14e696683 0.3 10201445
15:00+15e7116585 1.1 10181801
18:00+10ese51391100 1.3 1019882
21:00+9e51194100 2.4 1017537
13 may, thu
thu1300:00+9ese61395100 0.6 1017725
03:00+9ese5139417 2.3 1016595
06:00+8se41196100 0.0 1016455
09:00+11se598577 0.1 1016750
12:00+15sse6107261 0.3 10161316
15:00+17sse5862100 0.4 10161550
18:00+17se4771100 0.1 10151075
21:00+13e3990100 0.1 1015165